timestamp,surface_pressure_avg,surface_temp_avg,battery_voltage,lat,long
2019-06-02 00:00:00+00:00,329.958,5.1,12.97,47.84626,-54.09684
2019-06-02 00:10:00+00:00,321.8646,5.1,12.89,47.84626,-54.09684
2019-06-02 00:20:00+00:00,320.7729,4.8,12.97,47.84626,-54.09684
2019-06-02 00:30:00+00:00,311.1847,4.86,12.97,47.84626,-54.09684
2019-06-02 00:40:00+00:00,299.0496,4.8,12.97,47.84626,-54.09684
2019-06-02 00:50:00+00:00,299.323,4.8,12.97,47.84626,-54.09684
2019-06-02 01:00:00+00:00,294.4163,4.85,12.89,47.84626,-54.09684
2019-06-02 01:10:00+00:00,282.3214,4.91,12.81,47.84626,-54.09684
2019-06-02 01:20:00+00:00,276.8698,4.99,12.89,47.84626,-54.09684
2019-06-02 01:30:00+00:00,274.7714,5.0,12.89,47.84626,-54.09684
2019-06-02 01:40:00+00:00,268.2581,5.0,12.97,47.84626,-54.09684
2019-06-02 01:50:00+00:00,262.1931,5.0,12.97,47.84626,-54.09684
2019-06-02 02:00:00+00:00,253.9181,5.02,12.89,47.84626,-54.09684
2019-06-02 02:10:00+00:00,236.5881,5.08,12.81,47.84626,-54.09684
2019-06-02 02:20:00+00:00,226.7715,5.1,12.89,47.84626,-54.09684
2019-06-02 02:30:00+00:00,226.2781,5.1,12.89,47.84626,-54.09684
2019-06-02 02:40:00+00:00,221.3547,5.1,12.89,47.84626,-54.09684
2019-06-02 02:50:00+00:00,207.9331,5.1,12.89,47.84626,-54.09684
2019-06-02 03:00:00+00:00,203.5047,5.15,12.81,47.84626,-54.09684
2019-06-02 03:10:00+00:00,201.3615,5.18,12.81,47.84626,-54.09684
2019-06-02 03:20:00+00:00,188.9948,5.19,12.89,47.84626,-54.09684
2019-06-02 03:30:00+00:00,183.3781,5.2,12.89,47.84626,-54.09684
2019-06-02 03:40:00+00:00,185.6015,5.2,12.89,47.84626,-54.09684
2019-06-02 03:50:00+00:00,178.8931,5.2,12.89,47.84626,-54.09684
2019-06-02 04:00:00+00:00,172.0265,5.2,12.81,47.84626,-54.09684
2019-06-02 04:10:00+00:00,174.7348,5.2,12.73,47.84626,-54.09684
2019-06-02 04:20:00+00:00,173.9915,5.19,12.81,47.84626,-54.09684
2019-06-02 04:30:00+00:00,168.6864,5.19,12.81,47.84626,-54.09684
2019-06-02 04:40:00+00:00,171.9282,5.2,12.89,47.84626,-54.09684
2019-06-02 04:50:00+00:00,180.6198,5.2,12.89,47.84626,-54.09684
2019-06-02 05:00:00+00:00,183.2531,5.2,12.81,47.84626,-54.09684
2019-06-02 05:10:00+00:00,184.3315,5.2,12.73,47.84626,-54.09684
2019-06-02 05:20:00+00:00,189.153,5.26,12.81,47.84626,-54.09684
2019-06-02 05:30:00+00:00,189.7181,5.29,12.81,47.84626,-54.09684
2019-06-02 05:40:00+00:00,188.1631,5.3,12.81,47.84626,-54.09684
2019-06-02 05:50:00+00:00,195.5815,5.3,12.89,47.84626,-54.09684
2019-06-02 06:00:00+00:00,202.8398,5.3,12.81,47.84626,-54.09684
2019-06-02 06:10:00+00:00,201.3882,5.3,12.73,47.84626,-54.09684
2019-06-02 06:20:00+00:00,202.088,5.3,12.81,47.84626,-54.09684
2019-06-02 06:30:00+00:00,209.2681,5.3,12.81,47.84626,-54.09684
2019-06-02 06:40:00+00:00,215.1131,5.3,12.81,47.84626,-54.09684
2019-06-02 06:50:00+00:00,220.2048,5.3,12.81,47.84626,-54.09684
2019-06-02 07:00:00+00:00,226.1298,5.3,12.73,47.84626,-54.09684
2019-06-02 07:10:00+00:00,233.8115,5.3,12.65,47.84626,-54.09684
2019-06-02 07:20:00+00:00,240.3214,5.3,12.73,47.84626,-54.09684
2019-06-02 07:30:00+00:00,245.2764,5.3,12.73,47.84626,-54.09684
2019-06-02 07:40:00+00:00,247.633,5.32,12.81,47.84626,-54.09684
2019-06-02 07:50:00+00:00,249.3814,5.37,12.81,47.84626,-54.09684
2019-06-02 08:00:00+00:00,256.8398,5.4,12.73,47.84626,-54.09684
2019-06-02 08:10:00+00:00,264.7997,5.43,12.65,47.84626,-54.09684
2019-06-02 08:20:00+00:00,271.1664,5.49,12.73,47.84626,-54.09684
2019-06-02 08:30:00+00:00,270.9697,5.5,12.73,47.84626,-54.09684
2019-06-02 08:40:00+00:00,276.0779,5.59,12.81,47.84626,-54.09684
2019-06-02 08:50:00+00:00,279.8297,5.59,12.81,47.84626,-54.09684
2019-06-02 09:00:00+00:00,285.478,5.57,12.73,47.84626,-54.09684
2019-06-02 09:10:00+00:00,291.678,5.59,12.73,47.84626,-54.09684
2019-06-02 09:20:00+00:00,300.7664,5.57,12.81,47.84626,-54.09684
2019-06-02 09:30:00+00:00,303.5846,5.5,12.81,47.84626,-54.09684
2019-06-02 09:40:00+00:00,306.7463,5.4,12.81,47.84626,-54.09684
2019-06-02 09:50:00+00:00,314.1813,5.4,12.89,47.84626,-54.09684
2019-06-02 10:00:00+00:00,320.2413,5.4,12.89,47.84626,-54.09684
2019-06-02 10:10:00+00:00,316.1998,5.4,12.81,47.84626,-54.09684
2019-06-02 10:20:00+00:00,318.653,5.4,12.97,47.84626,-54.09684
2019-06-02 10:30:00+00:00,324.8246,5.2,13.05,47.84626,-54.09684
2019-06-02 10:40:00+00:00,322.5963,5.07,13.21,47.84626,-54.09684
2019-06-02 10:50:00+00:00,318.6097,5.18,13.29,47.84626,-54.09684
2019-06-02 11:00:00+00:00,324.3264,5.1,13.29,47.84626,-54.09684
2019-06-02 11:10:00+00:00,327.6229,5.1,13.21,47.84626,-54.09684
2019-06-02 11:20:00+00:00,323.668,5.2,13.37,47.84626,-54.09684
2019-06-02 11:30:00+00:00,322.738,5.2,13.6,47.84626,-54.09684
2019-06-02 11:40:00+00:00,326.3046,5.11,13.68,47.84626,-54.09684
2019-06-02 11:50:00+00:00,319.4396,5.22,13.92,47.84626,-54.09684
2019-06-02 12:00:00+00:00,308.2114,5.37,13.92,47.84626,-54.09684
2019-06-02 12:10:00+00:00,304.9064,5.3,13.92,47.84626,-54.09684
2019-06-02 12:20:00+00:00,304.5847,5.2,14.16,47.84626,-54.09684
2019-06-02 12:30:00+00:00,295.7864,5.24,14.32,47.84626,-54.09684
2019-06-02 12:40:00+00:00,286.298,5.3,14.64,47.84626,-54.09684
2019-06-02 12:50:00+00:00,286.2114,5.3,14.72,47.84626,-54.09684
2019-06-02 13:00:00+00:00,285.0114,5.3,16.07,47.84626,-54.09684
2019-06-02 13:10:00+00:00,274.6514,5.4,14.56,47.84626,-54.09684
2019-06-02 13:20:00+00:00,269.0681,5.48,14.64,47.84626,-54.09684
2019-06-02 13:30:00+00:00,263.7631,5.5,14.64,47.84626,-54.09684
2019-06-02 13:40:00+00:00,255.1714,5.5,14.8,47.84626,-54.09684
2019-06-02 13:50:00+00:00,244.4364,5.57,14.88,47.84626,-54.09684
2019-06-02 14:00:00+00:00,242.4464,5.5,14.72,47.84626,-54.09684
2019-06-02 14:10:00+00:00,238.3448,5.56,14.56,47.84626,-54.09684
2019-06-02 14:20:00+00:00,229.8381,5.71,14.72,47.84626,-54.09684
2019-06-02 14:30:00+00:00,220.4348,5.77,14.72,47.84626,-54.09684
2019-06-02 14:40:00+00:00,213.7515,5.75,14.72,47.84626,-54.09684
2019-06-02 14:50:00+00:00,210.0598,5.79,14.72,47.84626,-54.09684
2019-06-02 15:00:00+00:00,202.9681,5.8,14.64,47.84626,-54.09684
2019-06-02 15:10:00+00:00,195.3948,5.85,14.56,47.84626,-54.09684
2019-06-02 15:20:00+00:00,190.8682,5.9,14.72,47.84626,-54.09684
2019-06-02 15:30:00+00:00,186.3498,5.9,14.64,47.84626,-54.09684
2019-06-02 15:40:00+00:00,181.8315,5.92,14.64,47.84626,-54.09684
2019-06-02 15:50:00+00:00,179.0498,5.97,14.64,47.84626,-54.09684
2019-06-02 16:00:00+00:00,174.6432,6.0,14.48,47.84626,-54.09684
2019-06-02 16:10:00+00:00,172.7548,6.0,14.48,47.84626,-54.09684
2019-06-02 16:20:00+00:00,177.3332,6.0,14.56,47.84626,-54.09684
2019-06-02 16:30:00+00:00,175.3748,6.0,14.48,47.84626,-54.09684
2019-06-02 16:40:00+00:00,173.4365,6.0,14.56,47.84626,-54.09684
2019-06-02 16:50:00+00:00,180.4565,6.06,14.56,47.84626,-54.09684
2019-06-02 17:00:00+00:00,181.6848,6.1,14.48,47.84626,-54.09684
2019-06-02 17:10:00+00:00,175.8698,6.12,14.4,47.84626,-54.09684
2019-06-02 17:20:00+00:00,178.4798,6.2,14.48,47.84626,-54.09684
2019-06-02 17:30:00+00:00,189.3865,6.2,14.48,47.84626,-54.09684
2019-06-02 17:40:00+00:00,192.8665,6.2,14.4,47.84626,-54.09684
2019-06-02 17:50:00+00:00,191.9232,6.26,14.4,47.84626,-54.09684
2019-06-02 18:00:00+00:00,197.5814,6.3,14.32,47.84626,-54.09684
2019-06-02 18:10:00+00:00,204.9964,6.3,14.24,47.84626,-54.09684
2019-06-02 18:20:00+00:00,208.9798,6.3,14.32,47.84626,-54.09684
2019-06-02 18:30:00+00:00,211.2947,6.3,14.24,47.84626,-54.09684
2019-06-02 18:40:00+00:00,218.0214,6.3,14.24,47.84626,-54.09684
2019-06-02 18:50:00+00:00,225.5264,6.29,14.24,47.84626,-54.09684
2019-06-02 19:00:00+00:00,225.4214,6.2,14.08,47.84626,-54.09684
2019-06-02 19:10:00+00:00,227.1648,6.2,14.0,47.84626,-54.09684
2019-06-02 19:20:00+00:00,238.7131,6.1,14.08,47.84626,-54.09684
2019-06-02 19:30:00+00:00,241.7898,6.1,14.08,47.84626,-54.09684
2019-06-02 19:40:00+00:00,241.9364,6.1,14.08,47.84626,-54.09684
2019-06-02 19:50:00+00:00,246.5081,6.1,14.08,47.84626,-54.09684
2019-06-02 20:00:00+00:00,252.4148,6.0,14.0,47.84626,-54.09684
2019-06-02 20:10:00+00:00,254.7531,5.9,13.92,47.84626,-54.09684
2019-06-02 20:20:00+00:00,262.5481,5.8,13.92,47.84626,-54.09684
2019-06-02 20:30:00+00:00,275.4364,5.78,13.92,47.84626,-54.09684
2019-06-02 20:40:00+00:00,283.6664,5.7,13.92,47.84626,-54.09684
2019-06-02 20:50:00+00:00,286.7064,5.5,13.92,47.84626,-54.09684
2019-06-02 21:00:00+00:00,297.1913,5.38,13.76,47.84626,-54.09684
2019-06-02 21:10:00+00:00,308.7996,5.27,13.68,47.84626,-54.09684
2019-06-02 21:20:00+00:00,310.9047,5.2,13.68,47.84626,-54.09684
2019-06-02 21:30:00+00:00,308.2964,5.2,13.6,47.84626,-54.09684
2019-06-02 21:40:00+00:00,318.848,4.89,13.6,47.84626,-54.09684
2019-06-02 21:50:00+00:00,331.0696,4.8,13.6,47.84626,-54.09684
2019-06-02 22:00:00+00:00,338.4797,4.7,13.44,47.84626,-54.09684
2019-06-02 22:10:00+00:00,337.4213,4.68,13.29,47.84626,-54.09684
2019-06-02 22:20:00+00:00,344.3196,4.7,13.29,47.84626,-54.09684
2019-06-02 22:30:00+00:00,349.098,4.69,13.29,47.84626,-54.09684
2019-06-02 22:40:00+00:00,353.2562,4.63,13.29,47.84626,-54.09684
2019-06-02 22:50:00+00:00,360.073,4.6,13.29,47.84626,-54.09684
2019-06-02 23:00:00+00:00,369.0463,4.71,13.13,47.84626,-54.09684
2019-06-02 23:10:00+00:00,367.483,4.9,13.05,47.84626,-54.09684
2019-06-02 23:20:00+00:00,362.6097,5.04,13.05,47.84626,-54.09684
2019-06-02 23:30:00+00:00,360.7447,5.1,13.05,47.84626,-54.09684
2019-06-02 23:40:00+00:00,358.338,5.11,13.05,47.84626,-54.09684
2019-06-02 23:50:00+00:00,351.5029,5.26,13.05,47.84626,-54.09684
